This is the latest recevied weather packets stored in our database for station/object N1ICS-1. If no packets are shown the sender has not sent any weather packets the latest 10 day(s).
| Time | Temp. | Humidity | Pressure | Rain* | Wind** | Luminosity | Snow |
|---|---|---|---|---|---|---|---|
| 1777424701 | 13.89° C | 90% | 1016.1 hPa | 0 mm | - | 0 W/m² | - |
| 1777424402 | 13.33° C | 90% | 1016.2 hPa | 0 mm | - | 0 W/m² | - |
| 1777424102 | 13.89° C | 91% | 1015.8 hPa | 0 mm | - | 0 W/m² | - |
| 1777423801 | 13.89° C | 91% | 1015.5 hPa | 0 mm | - | 0 W/m² | - |
| 1777423502 | 13.89° C | 90% | 1015.4 hPa | 0 mm | - | 0 W/m² | - |
| 1777423202 | 13.89° C | 90% | 1015.5 hPa | 0 mm | - | 1 W/m² | - |
| 1777422902 | 13.89° C | 90% | 1015.3 hPa | 0 mm | - | 2 W/m² | - |
| 1777422602 | 13.89° C | 88% | 1015.1 hPa | 0 mm | - | 3 W/m² | - |
| 1777422301 | 13.89° C | 88% | 1015.3 hPa | 0 mm | - | 4 W/m² | - |
| 1777422002 | 14.44° C | 88% | 1015.2 hPa | 0 mm | - | 6 W/m² | - |
| 1777421702 | 14.44° C | 88% | 1015 hPa | 0 mm | - | 6 W/m² | - |
| 1777421402 | 14.44° C | 87% | 1015.1 hPa | 0 mm | - | 7 W/m² | - |
| 1777421102 | 14.44° C | 88% | 1015 hPa | 0 mm | - | 11 W/m² | - |
| 1777420803 | 14.44° C | 88% | 1015 hPa | 0 mm | - | 15 W/m² | - |
| 1777420503 | 14.44° C | 87% | 1014.8 hPa | 0 mm | - | 17 W/m² | - |
| 1777420202 | 14.44° C | 86% | 1014.7 hPa | 0 mm | - | 20 W/m² | - |
| 1777419902 | 14.44° C | 86% | 1014.6 hPa | 0 mm | - | 25 W/m² | - |
| 1777419602 | 14.44° C | 85% | 1014.6 hPa | 0 mm | - | 33 W/m² | - |
| 1777419302 | 14.44° C | 86% | 1014.1 hPa | 0 mm | - | 42 W/m² | - |
| 1777419002 | 14.44° C | 85% | 1014.3 hPa | 0 mm | - | 47 W/m² | - |
| 1777418702 | 14.44° C | 85% | 1014.3 hPa | 0 mm | - | 57 W/m² | - |
| 1777418402 | 14.44° C | 84% | 1014.7 hPa | 0 mm | - | 61 W/m² | - |
| 1777418101 | 14.44° C | 84% | 1014.5 hPa | 0 mm | - | 70 W/m² | - |
| 1777417802 | 14.44° C | 84% | 1014.7 hPa | 0 mm | - | 72 W/m² | - |
| 1777417502 | 15° C | 84% | 1014.7 hPa | 0 mm | - | 83 W/m² | - |
* Rain latest hour (hover to see other rain measurements)
** Current wind speed in m/s (hover to see current wind gust speed)